COSMOS 1275 DEB, 42185

Orbit data source: Space-Track

COSMOS 1275 DEB, 42185 is space debris in LEO originally from a launch on Thu, 04 Jun 1981 UTC launched from the Plesetsk Missile And Space Complex (PKMTR). Debris objects in space refer to the collection of defunct objects orbiting the Earth. Examples of debris include non-operational satellites, rocket bodies, and fragments generated from explosions, collisions, or faulty payload assembly.

Loading next visibility...
Identifier
42185, 1981-053SZ
Orbit
LEO
Country
Flag of CISCIS
Related business
Manufacturer
Unknown
Mission
Spacecraft
Bus & Motor
Unknown
Mass
Unknown
Launch date (UTC)
1981-06-04 (45 years ago)
Launch vehicle
Unknown
Launch site
Plesetsk Missile And Space Complex (PKMTR)
Object type
Payload
Rocket body
Debris
Shape & HBR
Unknown shape, 0.1 m
Radar Cross Section
Small (<0.1 m²)

Expand to show TLE details & history
Last TLE update: 2 weeks ago

TLE from 2 weeks ago
0 COSMOS 1275 DEB
1 42185U 81053SZ  26020.79300091  .00003525  00000-0  30024-2 0  9992
2 42185  83.0500  37.6977 0114361 178.3224 305.7400 13.84004067213514
Epoch: 2026-01-20T19:01Z
TLE epoch observation values (Epoch: 2026-01-20T19:01:55.278Z)
Latitude
56.46493°
Longitude
161.50542°
Altitude
910.835 km
Speed
7.426 km/s
True Right ascension
13h 48m 37s
True Declination
56° 18' 35"
Sunlit
Object was in daylight at epoch
Visualization orbit readout
Latitude
Unknown
Longitude
Unknown
Altitude
Unknown
Speed
Unknown
Apparent Right ascension
Unknown
Apparent Declination
Unknown
Sunlit
N/A
Visualization observer readout
Local Sidereal Time
13:45:17
Azimuth
Unknown
Elevation
Unknown
Doppler factor
Unknown
Orbital elements
Apogee altitude
1,030.62 km
Perigee altitude
863.081 km
Semi-major axis
7,324.988 km
Eccentricity
0.01144
Inclination
83.05°
RAAN
37.6977°
Arg. of periapsis
178.3224°
True anomaly
304.66742°
Mean anomaly
305.74°
Eccentric anomaly
305.2046°
Mean motion
3.46205 °/min
Orbital period
103.98 mins
BSTAR
0.0030024
Loading maneuver chart data...
Computing Atmospheric mass density...

Documentation

Showing up to 5 results
|